Location: The Stocker AstroScience Center
(25.7579°N, 80.3725°W)
Time: 12:48:03

ISS - Pass Details

Date: 27 February 2018
Orbit: 403 x 406 km, 51.6° (Epoch: 20 March)

Event Time Altitude Azimuth Distance (km) Brightness Sun altitude
Rises 03:56:38 0° 181° (S) 2,310 - -38.9°
Reaches altitude 10° 03:59:49 10° 146° (SSE) 1,454 - -38.2°
Maximum altitude 04:01:02 12° 124° (SE) 1,360 - -38.0°
Drops below altitude 10° 04:02:15 10° 102° (ESE) 1,456 - -37.7°
Exits shadow 04:04:35 - 74° (ENE) 2,034 0.6 -37.2°
Sets 04:05:27 0° 68° (ENE) 2,318 0.9 -37.0°
